| time (UTC) | temp F | wind direction | speed knots | gust knots | rain 1hr in | rain 24hr in | rain mn in | humidity % | barometer mb |
| 20260507213248 | 56 | 258 | 0.9 | 4.3 | 0.00 | 0.00 | 0.00 | 53 | 1011.0 |
| 20260507212744 | 55 | 221 | 1.7 | 4.3 | 0.00 | 0.00 | 0.00 | 49 | 1010.8 |
| 20260507212241 | 53 | 14 | 0.0 | 3.5 | 0.00 | 0.00 | 0.00 | 54 | 1011.0 |
| 20260507211737 | 54 | 145 | 0.0 | 8.7 | 0.00 | 0.00 | 0.00 | 54 | 1010.8 |
| 20260507211234 | 55 | 226 | 3.5 | 7.0 | 0.00 | 0.00 | 0.00 | 50 | 1011.0 |
| 20260507210731 | 56 | 257 | 1.7 | 6.1 | 0.00 | 0.00 | 0.00 | 52 | 1011.0 |
| 20260507210228 | 54 | 225 | 0.0 | 5.2 | 0.00 | 0.00 | 0.00 | 53 | 1011.1 |
| 20260507205724 | 53 | 90 | 0.0 | 4.3 | 0.00 | 0.00 | 0.00 | 55 | 1011.1 |
| 20260507205221 | 53 | 14 | 3.5 | 4.3 | 0.00 | 0.00 | 0.00 | 53 | 1010.8 |
| 20260507204717 | 53 | 22 | 2.6 | 5.2 | 0.00 | 0.00 | 0.00 | 54 | 1010.8 |
| 20260507204215 | 53 | 283 | 1.7 | 4.3 | 0.00 | 0.00 | 0.00 | 52 | 1010.8 |
| 20260507203713 | 54 | 270 | 0.0 | 6.1 | 0.00 | 0.00 | 0.00 | 51 | 1011.0 |
| 20260507203210 | 55 | 193 | 6.1 | 9.6 | 0.00 | 0.00 | 0.00 | 47 | 1010.9 |
| 20260507202706 | 56 | 352 | 0.0 | 9.6 | 0.00 | 0.00 | 0.00 | 52 | 1010.7 |
| 20260507202202 | 56 | 36 | 1.7 | 4.3 | 0.00 | 0.00 | 0.00 | 50 | 1010.8 |
| 20260507201657 | 54 | 296 | 4.3 | 6.1 | 0.00 | 0.00 | 0.00 | 50 | 1010.9 |
| 20260507201154 | 56 | 293 | 1.7 | 4.3 | 0.00 | 0.00 | 0.00 | 49 | 1011.1 |
| 20260507200650 | 56 | 345 | 1.7 | 6.1 | 0.00 | 0.00 | 0.00 | 55 | 1010.8 |
| 20260507200146 | 57 | 357 | 4.3 | 6.1 | 0.00 | 0.00 | 0.00 | 53 | 1011.1 |
| 20260507195643 | 56 | 42 | 2.6 | 7.8 | 0.00 | 0.00 | 0.00 | 55 | 1011.0 |
| 20260507195140 | 55 | 4 | 1.7 | 2.6 | 0.00 | 0.00 | 0.00 | 54 | 1011.2 |
| 20260507194637 | 54 | 53 | 1.7 | 3.5 | 0.00 | 0.00 | 0.00 | 54 | 1011.2 |
| 20260507194132 | 54 | 117 | 1.7 | 2.6 | 0.00 | 0.00 | 0.00 | 53 | 1011.1 |
| 20260507193630 | 54 | 58 | 3.5 | 5.2 | 0.00 | 0.00 | 0.00 | 53 | 1010.8 |
| 20260507193127 | 54 | 3 | 2.6 | 4.3 | 0.00 | 0.00 | 0.00 | 52 | 1011.3 |
| 20260507192623 | 53 | 71 | 0.9 | 6.1 | 0.00 | 0.00 | 0.00 | 55 | 1011.2 |
| 20260507192120 | 53 | 66 | 1.7 | 2.6 | 0.00 | 0.00 | 0.00 | 55 | 1011.2 |
| 20260507191615 | 54 | 286 | 0.0 | 3.5 | 0.00 | 0.00 | 0.00 | 53 | 1011.1 |
| 20260507191112 | 54 | 338 | 2.6 | 7.0 | 0.00 | 0.00 | 0.00 | 56 | 1011.3 |
| 20260507190610 | 53 | 49 | 3.5 | 5.2 | 0.00 | 0.00 | 0.00 | 54 | 1011.4 |
| 20260507190109 | 54 | 249 | 0.9 | 6.1 | 0.00 | 0.00 | 0.00 | 54 | 1011.3 |
| 20260507185607 | 54 | 353 | 1.7 | 4.3 | 0.00 | 0.00 | 0.00 | 51 | 1011.1 |
| 20260507185103 | 57 | 13 | 2.6 | 3.5 | 0.00 | 0.00 | 0.00 | 46 | 1011.1 |
| 20260507184601 | 59 | 6 | 2.6 | 5.2 | 0.00 | 0.00 | 0.00 | 51 | 1011.0 |
| 20260507184059 | 56 | 262 | 5.2 | 5.2 | 0.00 | 0.00 | 0.00 | 45 | 1011.3 |
| 20260507183555 | 55 | 11 | 3.5 | 4.3 | 0.00 | 0.00 | 0.00 | 50 | 1011.3 |
| 20260507183052 | 55 | 106 | 1.7 | 1.7 | 0.00 | 0.00 | 0.00 | 52 | 1011.4 |
| 20260507182548 | 54 | 4 | 1.7 | 2.6 | 0.00 | 0.00 | 0.00 | 50 | 1011.4 |
| 20260507182044 | 55 | 99 | 0.0 | 5.2 | 0.00 | 0.00 | 0.00 | 51 | 1011.3 |
| 20260507181541 | 57 | 278 | 4.3 | 5.2 | 0.00 | 0.00 | 0.00 | 46 | 1011.5 |
| 20260507181037 | 56 | 304 | 0.0 | 2.6 | 0.00 | 0.00 | 0.00 | 51 | 1011.3 |
| 20260507180534 | 55 | 34 | 1.7 | 2.6 | 0.00 | 0.00 | 0.00 | 50 | 1011.4 |
| 20260507180031 | 55 | 126 | 0.9 | 3.5 | 0.00 | 0.00 | 0.00 | 53 | 1011.7 |
| 20260507175526 | 53 | 274 | 0.0 | 7.8 | 0.00 | 0.00 | 0.00 | 49 | 1011.8 |
| 20260507175025 | 55 | 161 | 1.7 | 4.3 | 0.00 | 0.00 | 0.00 | 49 | 1011.7 |
| 20260507174521 | 54 | 0 | 3.5 | 6.1 | 0.00 | 0.00 | 0.00 | 51 | 1011.8 |
| 20260507174019 | 55 | 35 | 0.0 | 3.5 | 0.00 | 0.00 | 0.00 | 49 | 1011.9 |
| 20260507173516 | 54 | 239 | 1.7 | 5.2 | 0.00 | 0.00 | 0.00 | 50 | 1011.8 |
| 20260507173013 | 54 | 194 | 3.5 | 3.5 | 0.00 | 0.00 | 0.00 | 49 | 1012.0 |
| 20260507172509 | 54 | 246 | 3.5 | 6.1 | 0.00 | 0.00 | 0.00 | 48 | 1011.8 |
| 20260507172006 | 54 | 322 | 0.0 | 3.5 | 0.00 | 0.00 | 0.00 | 49 | 1011.9 |
| 20260507171501 | 54 | 221 | 1.7 | 6.1 | 0.00 | 0.00 | 0.00 | 47 | 1011.7 |
| 20260507171000 | 54 | 254 | 2.6 | 4.3 | 0.00 | 0.00 | 0.00 | 51 | 1012.2 |
| 20260507170455 | 55 | 243 | 0.0 | 10.4 | 0.00 | 0.00 | 0.00 | 47 | 1012.1 |
| 20260507165952 | 55 | 276 | 5.2 | 13.0 | 0.00 | 0.00 | 0.00 | 46 | 1012.1 |
| 20260507165448 | 54 | 231 | 4.3 | 9.6 | 0.00 | 0.00 | 0.00 | 46 | 1012.0 |
| 20260507164944 | 55 | 150 | 4.3 | 5.2 | 0.00 | 0.00 | 0.00 | 47 | 1012.1 |
| 20260507164441 | 55 | 337 | 4.3 | 7.8 | 0.00 | 0.00 | 0.00 | 47 | 1012.3 |
| 20260507163938 | 55 | 265 | 1.7 | 5.2 | 0.00 | 0.00 | 0.00 | 49 | 1012.4 |
| 20260507163435 | 53 | 180 | 0.0 | 6.1 | 0.00 | 0.00 | 0.00 | 49 | 1012.2 |
| 20260507162932 | 53 | 212 | 5.2 | 10.4 | 0.00 | 0.00 | 0.00 | 48 | 1012.4 |
| 20260507162427 | 53 | 279 | 0.0 | 10.4 | 0.00 | 0.00 | 0.00 | 50 | 1012.4 |
| 20260507161925 | 56 | 270 | 2.6 | 3.5 | 0.00 | 0.00 | 0.00 | 47 | 1012.5 |
| 20260507161421 | 54 | 255 | 7.8 | 9.6 | 0.00 | 0.00 | 0.00 | 49 | 1012.4 |
| 20260507160918 | 54 | 309 | 2.6 | 12.2 | 0.00 | 0.00 | 0.00 | 49 | 1012.3 |
| 20260507160414 | 55 | 254 | 3.5 | 5.2 | 0.00 | 0.00 | 0.00 | 48 | 1012.9 |
| 20260507155910 | 55 | 157 | 1.7 | 6.1 | 0.00 | 0.00 | 0.00 | 51 | 1012.7 |
| 20260507155406 | 53 | 242 | 6.1 | 11.3 | 0.00 | 0.00 | 0.00 | 48 | 1012.8 |
| 20260507154903 | 53 | 228 | 3.5 | 5.2 | 0.00 | 0.00 | 0.00 | 51 | 1012.8 |
| 20260507154400 | 52 | 270 | 1.7 | 4.3 | 0.00 | 0.00 | 0.00 | 50 | 1012.6 |
| 20260507153857 | 51 | 249 | 7.0 | 9.6 | 0.00 | 0.00 | 0.00 | 50 | 1012.8 |
| 20260507153353 | 51 | 231 | 1.7 | 5.2 | 0.00 | 0.00 | 0.00 | 54 | 1012.8 |
| 20260507152850 | 51 | 303 | 2.6 | 9.6 | 0.00 | 0.00 | 0.00 | 53 | 1012.7 |
| 20260507152346 | 52 | 285 | 0.0 | 5.2 | 0.00 | 0.00 | 0.00 | 51 | 1013.0 |
| 20260507151842 | 53 | 243 | 4.3 | 9.6 | 0.00 | 0.00 | 0.00 | 52 | 1013.0 |
| 20260507151338 | 54 | 222 | 4.3 | 6.1 | 0.00 | 0.00 | 0.00 | 54 | 1012.8 |
| 20260507150836 | 51 | 353 | 1.7 | 2.6 | 0.00 | 0.00 | 0.00 | 54 | 1012.9 |
| 20260507150333 | 52 | 258 | 3.5 | 5.2 | 0.00 | 0.00 | 0.00 | 55 | 1012.9 |
| 20260507145828 | 51 | 254 | 1.7 | 6.1 | 0.00 | 0.00 | 0.00 | 52 | 1012.9 |
| 20260507145325 | 54 | 227 | 2.6 | 6.1 | 0.00 | 0.00 | 0.00 | 53 | 1013.1 |
| 20260507144823 | 51 | 180 | 2.6 | 13.0 | 0.00 | 0.00 | 0.00 | 54 | 1013.2 |
| 20260507144320 | 52 | 205 | 2.6 | 8.7 | 0.00 | 0.00 | 0.00 | 53 | 1013.2 |
| 20260507143816 | 52 | 312 | 1.7 | 4.3 | 0.00 | 0.00 | 0.00 | 59 | 1013.2 |
| 20260507143313 | 51 | 210 | 2.6 | 7.0 | 0.00 | 0.00 | 0.00 | 54 | 1013.4 |
| 20260507142809 | 52 | 252 | 4.3 | 6.1 | 0.00 | 0.00 | 0.00 | 57 | 1013.3 |
| 20260507142307 | 52 | 252 | 1.7 | 5.2 | 0.00 | 0.00 | 0.00 | 61 | 1013.4 |
| 20260507141803 | 51 | 239 | 1.7 | 6.1 | 0.00 | 0.00 | 0.00 | 59 | 1013.4 |
| 20260507141300 | 51 | 180 | 1.7 | 6.1 | 0.00 | 0.00 | 0.00 | 58 | 1013.3 |
| 20260507140755 | 52 | 97 | 2.6 | 3.5 | 0.00 | 0.00 | 0.00 | 61 | 1013.3 |
| 20260507140253 | 50 | 227 | 2.6 | 6.1 | 0.00 | 0.00 | 0.00 | 61 | 1013.3 |
| 20260507135750 | 50 | 277 | 2.6 | 5.2 | 0.00 | 0.00 | 0.00 | 62 | 1013.8 |
| 20260507135247 | 52 | 6 | 2.6 | 5.2 | 0.00 | 0.00 | 0.00 | 63 | 1013.5 |
| 20260507134743 | 51 | 217 | 3.5 | 4.3 | 0.00 | 0.00 | 0.00 | 63 | 1013.7 |
| 20260507134240 | 51 | 117 | 4.3 | 4.3 | 0.00 | 0.00 | 0.00 | 63 | 1013.7 |
| 20260507133736 | 49 | 225 | 2.6 | 6.1 | 0.00 | 0.00 | 0.00 | 66 | 1013.5 |
| 20260507133233 | 49 | 23 | 0.9 | 6.1 | 0.00 | 0.00 | 0.00 | 69 | 1014.0 |
| 20260507132730 | 48 | 231 | 2.6 | 6.1 | 0.00 | 0.00 | 0.00 | 68 | 1013.9 |
| 20260507132227 | 48 | 337 | 2.6 | 5.2 | 0.00 | 0.00 | 0.00 | 68 | 1013.8 |
| 20260507131724 | 47 | 289 | 0.9 | 7.0 | 0.00 | 0.00 | 0.00 | 67 | 1013.7 |
| 20260507131221 | 47 | 297 | 1.7 | 2.6 | 0.00 | 0.00 | 0.00 | 69 | 1013.7 |
| 20260507130718 | 46 | 219 | 4.3 | 4.3 | 0.00 | 0.00 | 0.00 | 70 | 1013.5 |
| 20260507130216 | 46 | 275 | 2.6 | 8.7 | 0.00 | 0.00 | 0.00 | 70 | 1013.7 |
| 20260507125714 | 45 | 206 | 2.6 | 8.7 | 0.00 | 0.00 | 0.00 | 70 | 1013.5 |
| 20260507125211 | 46 | 235 | 3.5 | 7.0 | 0.00 | 0.00 | 0.00 | 71 | 1013.4 |
| 20260507124707 | 46 | 135 | 1.7 | 4.3 | 0.00 | 0.00 | 0.00 | 71 | 1013.7 |
| 20260507124204 | 45 | 272 | 3.5 | 6.1 | 0.00 | 0.00 | 0.00 | 71 | 1013.7 |
| 20260507123553 | 45 | 217 | 1.7 | 7.8 | 0.00 | 0.00 | 0.00 | 70 | 1013.8 |
| 20260507123050 | 45 | 217 | 1.7 | 7.8 | 0.00 | 0.00 | 0.00 | 70 | 1013.8 |
| 20260507122545 | 45 | 217 | 1.7 | 7.8 | 0.00 | 0.00 | 0.00 | 70 | 1013.8 |
| 20260507122041 | 46 | 163 | 1.7 | 3.5 | 0.00 | 0.00 | 0.00 | 70 | 1013.7 |
| 20260507121537 | 45 | 153 | 2.6 | 4.3 | 0.00 | 0.00 | 0.00 | 72 | 1013.5 |
| 20260507121033 | 45 | 143 | 1.7 | 2.6 | 0.00 | 0.00 | 0.00 | 73 | 1013.7 |
| 20260507120529 | 44 | 182 | 3.5 | 6.1 | 0.00 | 0.00 | 0.00 | 72 | 1013.8 |
| 20260507120026 | 43 | 165 | 1.7 | 2.6 | 0.00 | 0.00 | 0.00 | 74 | 1013.5 |
| 20260507115522 | 43 | 180 | 0.9 | 2.6 | 0.00 | 0.00 | 0.00 | 76 | 1013.4 |
| 20260507115018 | 42 | 139 | 1.7 | 2.6 | 0.00 | 0.00 | 0.00 | 76 | 1013.7 |
| 20260507114514 | 42 | 180 | 0.0 | 1.7 | 0.00 | 0.00 | 0.00 | 78 | 1013.5 |
| 20260507114012 | 41 | 149 | 1.7 | 2.6 | 0.00 | 0.00 | 0.00 | 80 | 1013.5 |
| 20260507113509 | 40 | 165 | 2.6 | 2.6 | 0.00 | 0.00 | 0.00 | 81 | 1013.8 |
| 20260507113006 | 39 | 114 | 0.0 | 2.6 | 0.00 | 0.00 | 0.00 | 83 | 1013.8 |
| 20260507112503 | 39 | 170 | 0.0 | 1.7 | 0.00 | 0.00 | 0.00 | 85 | 1013.8 |
| 20260507112000 | 38 | 160 | 0.9 | 2.6 | 0.00 | 0.00 | 0.00 | 87 | 1013.7 |
| 20260507111459 | 37 | 169 | 1.7 | 2.6 | 0.00 | 0.00 | 0.00 | 90 | 1013.5 |
| 20260507110953 | 36 | 175 | 0.0 | 1.7 | 0.00 | 0.00 | 0.00 | 92 | 1013.7 |
| 20260507110450 | 35 | 209 | 0.9 | 2.6 | 0.00 | 0.00 | 0.00 | 94 | 1013.4 |
| 20260507105946 | 35 | 160 | 0.9 | 1.7 | 0.00 | 0.00 | 0.00 | 95 | 1013.5 |
| 20260507105443 | 34 | 131 | 0.9 | 1.7 | 0.00 | 0.00 | 0.00 | 96 | 1013.4 |
| 20260507104940 | 34 | 152 | 0.0 | 1.7 | 0.00 | 0.00 | 0.00 | 97 | 1013.4 |
| 20260507104437 | 33 | 166 | 0.0 | 1.7 | 0.00 | 0.00 | 0.00 | 97 | 1013.1 |
| 20260507103933 | 33 | 157 | 0.0 | 0.9 | 0.00 | 0.00 | 0.00 | 97 | 1013.3 |
| 20260507103430 | 33 | 131 | 0.0 | 1.7 | 0.00 | 0.00 | 0.00 | 97 | 1013.1 |
| 20260507102926 | 33 | 120 | 0.9 | 1.7 | 0.00 | 0.00 | 0.00 | 97 | 1013.2 |
| 20260507102423 | 32 | 126 | 0.0 | 1.7 | 0.00 | 0.00 | 0.00 | 96 | 1013.1 |
| 20260507101919 | 32 | 126 | 0.9 | 1.7 | 0.00 | 0.00 | 0.00 | 96 | 1013.1 |
| 20260507101414 | 32 | 145 | 0.0 | 0.9 | 0.00 | 0.00 | 0.00 | 96 | 1013.3 |
| 20260507100911 | 32 | 145 | 0.0 | 1.7 | 0.00 | 0.00 | 0.00 | 96 | 1013.2 |
| 20260507100409 | 33 | 180 | 0.0 | 0.0 | 0.00 | 0.00 | 0.00 | 96 | 1013.1 |
| 20260507095907 | 32 | 180 | 0.0 | 0.9 | 0.00 | 0.00 | 0.00 | 96 | 1013.2 |
| 20260507095403 | 33 | 109 | 0.0 | 2.6 | 0.00 | 0.00 | 0.00 | 96 | 1013.1 |
| 20260507094901 | 33 | 112 | 1.7 | 1.7 | 0.00 | 0.00 | 0.00 | 95 | 1013.0 |
| 20260507094357 | 33 | 105 | 0.0 | 1.7 | 0.00 | 0.00 | 0.00 | 95 | 1013.2 |
| 20260507093854 | 33 | 166 | 0.9 | 1.7 | 0.00 | 0.00 | 0.00 | 95 | 1013.1 |
| 20260507093352 | 33 | 180 | 0.0 | 0.0 | 0.00 | 0.00 | 0.00 | 95 | 1013.4 |
| 20260507092850 | 33 | 174 | 0.0 | 0.9 | 0.00 | 0.00 | 0.00 | 95 | 1013.1 |
| 20260507092346 | 33 | 117 | 1.7 | 1.7 | 0.00 | 0.00 | 0.00 | 94 | 1013.0 |
| 20260507091843 | 33 | 169 | 0.9 | 1.7 | 0.00 | 0.00 | 0.00 | 94 | 1013.2 |
| 20260507091339 | 34 | 180 | 0.0 | 1.7 | 0.00 | 0.00 | 0.00 | 94 | 1013.3 |
| 20260507090835 | 34 | 180 | 0.9 | 0.9 | 0.00 | 0.00 | 0.00 | 95 | 1013.3 |
| 20260507090331 | 34 | 157 | 0.0 | 1.7 | 0.00 | 0.00 | 0.00 | 95 | 1013.1 |
| 20260507085828 | 33 | 154 | 0.9 | 1.7 | 0.00 | 0.00 | 0.00 | 95 | 1013.2 |
| 20260507085325 | 33 | 168 | 0.9 | 1.7 | 0.00 | 0.00 | 0.00 | 95 | 1013.3 |
| 20260507084823 | 34 | 173 | 0.0 | 1.7 | 0.00 | 0.00 | 0.00 | 94 | 1013.5 |
| 20260507084319 | 34 | 186 | 0.9 | 1.7 | 0.00 | 0.00 | 0.00 | 95 | 1013.5 |
| 20260507083816 | 34 | 165 | 0.0 | 1.7 | 0.00 | 0.00 | 0.00 | 94 | 1013.2 |
| 20260507083313 | 34 | 162 | 0.9 | 1.7 | 0.00 | 0.00 | 0.00 | 94 | 1013.1 |
| 20260507082809 | 34 | 157 | 0.0 | 0.9 | 0.00 | 0.00 | 0.00 | 94 | 1013.4 |
| 20260507082306 | 34 | 156 | 1.7 | 1.7 | 0.00 | 0.00 | 0.00 | 94 | 1013.4 |
| 20260507081802 | 34 | 162 | 0.9 | 0.9 | 0.00 | 0.00 | 0.00 | 94 | 1013.5 |
| 20260507081257 | 34 | 186 | 0.0 | 1.7 | 0.00 | 0.00 | 0.00 | 93 | 1013.7 |
| 20260507080755 | 34 | 161 | 0.0 | 0.0 | 0.00 | 0.00 | 0.00 | 93 | 1013.5 |
| 20260507080251 | 34 | 161 | 0.0 | 0.0 | 0.00 | 0.00 | 0.00 | 93 | 1013.7 |
| 20260507075746 | 34 | 161 | 0.0 | 1.7 | 0.00 | 0.00 | 0.00 | 92 | 1013.5 |
| 20260507075242 | 34 | 157 | 0.0 | 1.7 | 0.00 | 0.00 | 0.00 | 92 | 1013.3 |
| 20260507074739 | 35 | 195 | 0.0 | 1.7 | 0.00 | 0.00 | 0.00 | 91 | 1013.8 |
| 20260507074237 | 35 | 209 | 0.0 | 1.7 | 0.00 | 0.00 | 0.00 | 92 | 1013.5 |
| 20260507073733 | 35 | 151 | 0.0 | 0.0 | 0.00 | 0.00 | 0.00 | 92 | 1013.4 |
| 20260507073230 | 35 | 151 | 0.0 | 0.9 | 0.00 | 0.00 | 0.00 | 92 | 1013.5 |
| 20260507072728 | 35 | 114 | 0.9 | 1.7 | 0.00 | 0.00 | 0.00 | 91 | 1013.2 |
| 20260507072225 | 35 | 165 | 0.0 | 0.9 | 0.00 | 0.00 | 0.00 | 90 | 1013.5 |
| 20260507071723 | 35 | 114 | 0.0 | 0.0 | 0.00 | 0.00 | 0.00 | 90 | 1013.7 |
| 20260507071219 | 35 | 114 | 0.0 | 0.0 | 0.00 | 0.00 | 0.00 | 90 | 1013.5 |
| 20260507070716 | 36 | 114 | 0.0 | 0.0 | 0.00 | 0.00 | 0.00 | 90 | 1013.7 |
| 20260507070213 | 36 | 114 | 0.0 | 0.0 | 0.00 | 0.00 | 0.00 | 88 | 1013.8 |
| 20260507065709 | 36 | 114 | 0.9 | 0.9 | 0.00 | 0.00 | 0.00 | 87 | 1013.8 |
| 20260507065206 | 36 | 98 | 0.0 | 0.0 | 0.00 | 0.00 | 0.00 | 88 | 1013.5 |
| 20260507064704 | 36 | 98 | 0.0 | 0.0 | 0.00 | 0.00 | 0.00 | 90 | 1013.9 |
| 20260507064202 | 37 | 98 | 0.0 | 0.0 | 0.00 | 0.00 | 0.00 | 90 | 1013.9 |
| 20260507063659 | 36 | 98 | 0.0 | 0.0 | 0.00 | 0.00 | 0.00 | 89 | 1013.8 |
| 20260507063156 | 36 | 98 | 0.0 | 0.0 | 0.00 | 0.00 | 0.00 | 89 | 1013.8 |
| 20260507062653 | 36 | 98 | 0.0 | 0.0 | 0.00 | 0.00 | 0.00 | 88 | 1013.8 |
| 20260507062150 | 37 | 98 | 0.0 | 0.0 | 0.00 | 0.00 | 0.00 | 89 | 1014.0 |
| 20260507061648 | 37 | 98 | 0.0 | 0.0 | 0.00 | 0.00 | 0.00 | 89 | 1014.0 |
| 20260507061146 | 37 | 98 | 0.0 | 0.0 | 0.00 | 0.00 | 0.00 | 89 | 1013.7 |
| 20260507060644 | 37 | 98 | 0.0 | 0.0 | 0.00 | 0.00 | 0.00 | 89 | 1014.1 |
| 20260507060140 | 37 | 98 | 0.0 | 0.0 | 0.00 | 0.00 | 0.00 | 89 | 1014.0 |
| 20260507055635 | 37 | 98 | 0.0 | 0.0 | 0.00 | 0.00 | 0.00 | 88 | 1014.1 |
| 20260507055132 | 38 | 98 | 0.0 | 0.0 | 0.00 | 0.00 | 0.00 | 87 | 1014.2 |
| 20260507054628 | 38 | 98 | 0.0 | 0.0 | 0.00 | 0.00 | 0.00 | 86 | 1014.1 |
| 20260507054125 | 38 | 98 | 0.0 | 0.0 | 0.00 | 0.00 | 0.00 | 86 | 1014.3 |
| 20260507053623 | 38 | 82 | 0.0 | 0.9 | 0.00 | 0.00 | 0.00 | 85 | 1014.1 |
| 20260507053121 | 38 | 117 | 0.0 | 0.9 | 0.00 | 0.00 | 0.00 | 84 | 1014.3 |
| 20260507052619 | 39 | 114 | 0.0 | 0.0 | 0.00 | 0.00 | 0.00 | 84 | 1014.3 |
| 20260507052115 | 39 | 131 | 0.9 | 1.7 | 0.00 | 0.00 | 0.00 | 84 | 1014.4 |
| 20260507051613 | 39 | 114 | 0.0 | 0.9 | 0.00 | 0.00 | 0.00 | 83 | 1014.4 |
| 20260507051109 | 39 | 105 | 0.9 | 1.7 | 0.00 | 0.00 | 0.00 | 82 | 1014.4 |
| 20260507050606 | 40 | 106 | 0.0 | 0.9 | 0.00 | 0.00 | 0.00 | 81 | 1014.4 |
| 20260507045559 | 40 | 74 | 0.0 | 0.0 | 0.00 | 0.00 | 0.00 | 79 | 1014.4 |
| 20260507045056 | 40 | 74 | 0.0 | 0.0 | 0.00 | 0.00 | 0.00 | 79 | 1014.5 |
| 20260507044553 | 40 | 74 | 0.0 | 0.0 | 0.00 | 0.00 | 0.00 | 78 | 1014.4 |
| 20260507044050 | 40 | 49 | 0.9 | 1.7 | 0.00 | 0.00 | 0.00 | 78 | 1014.8 |
| 20260507043545 | 40 | 29 | 0.0 | 1.7 | 0.00 | 0.00 | 0.00 | 78 | 1014.8 |
| 20260507043043 | 40 | 90 | 0.0 | 1.7 | 0.00 | 0.00 | 0.00 | 78 | 1014.7 |
| 20260507042539 | 41 | 35 | 0.0 | 0.9 | 0.00 | 0.00 | 0.00 | 78 | 1014.6 |
| 20260507042035 | 41 | 53 | 1.7 | 1.7 | 0.00 | 0.00 | 0.00 | 77 | 1014.6 |
| 20260507041532 | 41 | 83 | 0.0 | 0.0 | 0.00 | 0.00 | 0.00 | 77 | 1014.8 |
| 20260507041029 | 41 | 225 | 0.0 | 1.7 | 0.00 | 0.00 | 0.00 | 78 | 1014.7 |
| 20260507040525 | 41 | 285 | 0.0 | 1.7 | 0.00 | 0.00 | 0.00 | 77 | 1014.9 |
| 20260507040021 | 41 | 66 | 0.0 | 0.0 | 0.00 | 0.00 | 0.00 | 78 | 1014.7 |
| 20260507035517 | 41 | 259 | 0.0 | 1.7 | 0.00 | 0.73 | 0.73 | 76 | 1014.5 |
| 20260507035014 | 41 | 60 | 0.0 | 0.9 | 0.00 | 0.73 | 0.73 | 77 | 1014.5 |
| 20260507034511 | 41 | 63 | 0.0 | 0.9 | 0.00 | 0.73 | 0.73 | 77 | 1014.7 |
| 20260507034009 | 41 | 32 | 0.0 | 1.7 | 0.00 | 0.73 | 0.73 | 76 | 1014.7 |
| 20260507033507 | 41 | 98 | 0.0 | 0.9 | 0.00 | 0.73 | 0.73 | 77 | 1014.5 |
| 20260507033004 | 41 | 45 | 1.7 | 1.7 | 0.00 | 0.73 | 0.73 | 76 | 1014.4 |
| 20260507032500 | 41 | 90 | 0.0 | 1.7 | 0.00 | 0.73 | 0.73 | 75 | 1014.3 |
| 20260507031956 | 42 | 35 | 0.0 | 2.6 | 0.00 | 0.73 | 0.73 | 76 | 1014.5 |
| 20260507031453 | 42 | 97 | 0.0 | 1.7 | 0.00 | 0.73 | 0.73 | 76 | 1014.6 |
| 20260507030950 | 42 | 78 | 1.7 | 1.7 | 0.00 | 0.73 | 0.73 | 75 | 1014.5 |
| 20260507030447 | 42 | 0 | 1.7 | 2.6 | 0.00 | 0.73 | 0.73 | 75 | 1014.5 |
| 20260507025944 | 42 | 60 | 0.9 | 1.7 | 0.00 | 0.73 | 0.73 | 76 | 1014.5 |
| 20260507025441 | 42 | 166 | 1.7 | 2.6 | 0.00 | 0.73 | 0.73 | 75 | 1014.5 |
| 20260507024939 | 42 | 312 | 0.0 | 1.7 | 0.00 | 0.73 | 0.73 | 75 | 1014.4 |
| 20260507024436 | 42 | 90 | 0.0 | 0.0 | 0.00 | 0.73 | 0.73 | 75 | 1014.1 |
| 20260507023932 | 42 | 90 | 0.0 | 0.9 | 0.00 | 0.73 | 0.73 | 74 | 1014.0 |
| 20260507023429 | 42 | 66 | 0.0 | 0.9 | 0.00 | 0.73 | 0.73 | 74 | 1014.2 |
| 20260507022926 | 42 | 35 | 0.0 | 0.9 | 0.00 | 0.73 | 0.73 | 74 | 1014.1 |
| 20260507022423 | 42 | 66 | 0.0 | 1.7 | 0.00 | 0.73 | 0.73 | 75 | 1014.2 |
| 20260507021919 | 42 | 63 | 0.9 | 1.7 | 0.00 | 0.73 | 0.73 | 73 | 1014.1 |
| 20260507021414 | 42 | 23 | 0.9 | 0.9 | 0.00 | 0.73 | 0.73 | 74 | 1014.0 |
| 20260507020912 | 42 | 0 | 0.0 | 1.7 | 0.00 | 0.73 | 0.73 | 72 | 1014.3 |
| 20260507020409 | 43 | 23 | 0.0 | 2.6 | 0.00 | 0.73 | 0.73 | 75 | 1014.1 |
| 20260507015906 | 42 | 82 | 0.0 | 1.7 | 0.00 | 0.73 | 0.73 | 73 | 1014.1 |
| 20260507015404 | 43 | 20 | 0.0 | 0.9 | 0.00 | 0.73 | 0.73 | 74 | 1014.1 |
| 20260507014900 | 42 | 126 | 0.0 | 1.7 | 0.00 | 0.73 | 0.73 | 74 | 1014.3 |
| 20260507014356 | 43 | 123 | 0.9 | 1.7 | 0.00 | 0.73 | 0.73 | 75 | 1014.3 |
| 20260507013853 | 42 | 60 | 0.0 | 0.9 | 0.00 | 0.73 | 0.73 | 74 | 1014.2 |
| 20260507013350 | 43 | 66 | 0.0 | 0.9 | 0.00 | 0.73 | 0.73 | 73 | 1014.2 |
| 20260507012848 | 43 | 60 | 0.0 | 0.0 | 0.00 | 0.73 | 0.73 | 73 | 1014.2 |
| 20260507012343 | 43 | 54 | 0.0 | 1.7 | 0.00 | 0.73 | 0.73 | 72 | 1014.1 |
| 20260507011841 | 43 | 75 | 0.0 | 0.0 | 0.00 | 0.73 | 0.73 | 72 | 1014.2 |
| 20260507011337 | 43 | 60 | 0.0 | 1.7 | 0.00 | 0.73 | 0.73 | 71 | 1014.3 |
| 20260507010832 | 43 | 69 | 0.0 | 1.7 | 0.00 | 0.73 | 0.73 | 71 | 1014.2 |
| 20260507010328 | 43 | 23 | 0.0 | 1.7 | 0.00 | 0.73 | 0.73 | 71 | 1014.3 |
| 20260507005825 | 43 | 111 | 0.0 | 1.7 | 0.00 | 0.73 | 0.73 | 71 | 1014.0 |
| 20260507005322 | 43 | 66 | 0.9 | 2.6 | 0.00 | 0.73 | 0.73 | 72 | 1014.2 |
| 20260507004819 | 43 | 98 | 0.9 | 0.9 | 0.00 | 0.73 | 0.73 | 71 | 1014.3 |
| 20260507004316 | 44 | 123 | 0.0 | 0.9 | 0.00 | 0.73 | 0.73 | 70 | 1014.5 |
| 20260507003813 | 44 | 35 | 0.9 | 1.7 | 0.00 | 0.73 | 0.73 | 69 | 1014.3 |
| 20260507003308 | 44 | 337 | 0.0 | 0.9 | 0.00 | 0.73 | 0.73 | 69 | 1014.2 |
| 20260507002803 | 44 | 60 | 0.0 | 2.6 | 0.00 | 0.73 | 0.73 | 69 | 1014.2 |
| 20260507002300 | 44 | 180 | 0.0 | 2.6 | 0.00 | 0.73 | 0.73 | 67 | 1014.1 |
| 20260507001757 | 44 | 187 | 0.9 | 2.6 | 0.00 | 0.73 | 0.73 | 68 | 1014.3 |
| 20260507001254 | 44 | 138 | 2.6 | 2.6 | 0.00 | 0.73 | 0.73 | 67 | 1014.1 |
| 20260507000750 | 45 | 60 | 0.0 | 1.7 | 0.00 | 0.73 | 0.73 | 68 | 1014.3 |
| 20260507000246 | 45 | 270 | 1.7 | 5.2 | 0.00 | 0.73 | 0.73 | 65 | 1014.4 |
| 20260506235743 | 44 | 265 | 0.0 | 1.7 | 0.00 | 0.73 | 0.73 | 65 | 1014.3 |
| 20260506235238 | 45 | 17 | 2.6 | 3.5 | 0.00 | 0.73 | 0.73 | 65 | 1014.1 |
| 20260506234736 | 45 | 220 | 0.0 | 2.6 | 0.00 | 0.73 | 0.73 | 65 | 1014.0 |
| 20260506234233 | 45 | 102 | 0.9 | 2.6 | 0.00 | 0.73 | 0.73 | 63 | 1014.0 |
| 20260506233730 | 45 | 0 | 1.7 | 4.3 | 0.00 | 0.73 | 0.73 | 61 | 1013.5 |
| 20260506233227 | 45 | 183 | 0.0 | 3.5 | 0.00 | 0.73 | 0.73 | 61 | 1013.8 |
| 20260506232724 | 46 | 126 | 0.9 | 4.3 | 0.00 | 0.73 | 0.73 | 61 | 1013.3 |
| 20260506232218 | 45 | 94 | 1.7 | 2.6 | 0.00 | 0.73 | 0.73 | 63 | 1013.5 |
| 20260506231716 | 46 | 23 | 0.0 | 2.6 | 0.00 | 0.73 | 0.73 | 64 | 1013.5 |
| 20260506231214 | 46 | 157 | 0.0 | 5.2 | 0.00 | 0.73 | 0.73 | 60 | 1013.4 |
| 20260506230710 | 46 | 77 | 0.9 | 1.7 | 0.00 | 0.73 | 0.73 | 60 | 1013.3 |
| 20260506230208 | 46 | 46 | 3.5 | 3.5 | 0.00 | 0.73 | 0.73 | 60 | 1013.3 |
| 20260506225704 | 46 | 24 | 1.7 | 6.1 | 0.00 | 0.73 | 0.73 | 60 | 1013.4 |
| 20260506225201 | 46 | 90 | 0.9 | 5.2 | 0.00 | 0.73 | 0.73 | 59 | 1013.3 |
| 20260506224657 | 46 | 319 | 0.0 | 5.2 | 0.00 | 0.73 | 0.73 | 58 | 1013.4 |
| 20260506224154 | 47 | 74 | 2.6 | 2.6 | 0.00 | 0.73 | 0.73 | 62 | 1013.1 |
| 20260506223650 | 47 | 20 | 2.6 | 2.6 | 0.00 | 0.73 | 0.73 | 61 | 1012.9 |
| 20260506223146 | 47 | 64 | 2.6 | 2.6 | 0.00 | 0.73 | 0.73 | 61 | 1012.9 |
| 20260506222643 | 47 | 6 | 0.0 | 1.7 | 0.00 | 0.73 | 0.73 | 61 | 1012.9 |
| 20260506222139 | 47 | 327 | 0.0 | 4.3 | 0.00 | 0.73 | 0.73 | 59 | 1013.0 |
| 20260506221637 | 47 | 215 | 0.9 | 3.5 | 0.00 | 0.73 | 0.73 | 62 | 1012.8 |
| 20260506221135 | 48 | 117 | 0.9 | 2.6 | 0.00 | 0.73 | 0.73 | 61 | 1012.9 |
| 20260506220632 | 48 | 315 | 1.7 | 3.5 | 0.00 | 0.73 | 0.73 | 61 | 1012.6 |
| 20260506220127 | 48 | 354 | 0.9 | 4.3 | 0.00 | 0.73 | 0.73 | 60 | 1012.4 |
| 20260506215624 | 48 | 133 | 2.6 | 4.3 | 0.00 | 0.73 | 0.73 | 59 | 1012.7 |
| 20260506215119 | 48 | 165 | 2.6 | 3.5 | 0.00 | 0.73 | 0.73 | 60 | 1012.7 |
| 20260506214616 | 48 | 23 | 0.9 | 3.5 | 0.00 | 0.73 | 0.73 | 58 | 1012.5 |
| 20260506214114 | 48 | 332 | 1.7 | 6.1 | 0.00 | 0.73 | 0.73 | 60 | 1012.4 |